| time (UTC) | temp F | wind direction | speed knots | gust knots | rain 1hr in | rain 24hr in | rain mn in | humidity % | barometer mb |
| 20260505111552 | 35 | 0 | 0.0 | 0.9 | 0.00 | 0.00 | 0.00 | 84 | 1012.9 |
| 20260505101555 | 36 | 0 | 0.0 | 0.9 | 0.00 | 0.00 | 0.00 | 83 | 1013.4 |
| 20260505100052 | 37 | 275 | 0.0 | 0.9 | 0.00 | 0.00 | 0.00 | 83 | 1013.3 |
| 20260505094558 | 37 | 0 | 0.0 | 0.9 | 0.00 | 0.00 | 0.00 | 82 | 1013.7 |
| 20260505093052 | 38 | 0 | 0.0 | 0.9 | 0.00 | 0.00 | 0.00 | 79 | 1013.6 |
| 20260505091557 | 38 | 330 | 0.0 | 0.9 | 0.00 | 0.00 | 0.00 | 80 | 1013.9 |
| 20260505090104 | 38 | 0 | 0.0 | 0.9 | 0.00 | 0.00 | 0.00 | 80 | 1013.9 |
| 20260505084555 | 39 | 0 | 0.0 | 0.9 | 0.00 | 0.00 | 0.00 | 77 | 1013.7 |
| 20260505083102 | 38 | 0 | 0.0 | 0.9 | 0.00 | 0.00 | 0.00 | 80 | 1013.8 |
| 20260505081602 | 38 | 0 | 0.0 | 0.0 | 0.00 | 0.00 | 0.00 | 79 | 1013.8 |
| 20260505080055 | 38 | 0 | 0.0 | 0.9 | 0.00 | 0.00 | 0.00 | 79 | 1013.7 |
| 20260505074559 | 38 | 8 | 0.0 | 0.9 | 0.00 | 0.00 | 0.00 | 78 | 1014.2 |
| 20260505073059 | 39 | 0 | 0.0 | 0.0 | 0.00 | 0.00 | 0.00 | 75 | 1014.3 |
| 20260505071607 | 39 | 8 | 0.0 | 0.9 | 0.00 | 0.00 | 0.00 | 74 | 1014.3 |
| 20260505070052 | 39 | 8 | 0.0 | 0.9 | 0.00 | 0.00 | 0.00 | 74 | 1014.2 |
| 20260505064558 | 40 | 8 | 0.0 | 0.9 | 0.00 | 0.00 | 0.00 | 73 | 1014.2 |
| 20260505063050 | 41 | 354 | 0.0 | 0.9 | 0.00 | 0.00 | 0.00 | 73 | 1014.2 |
| 20260505061602 | 42 | 355 | 0.0 | 1.7 | 0.00 | 0.00 | 0.00 | 70 | 1014.1 |
| 20260505060059 | 43 | 0 | 0.0 | 0.9 | 0.00 | 0.00 | 0.00 | 67 | 1014.2 |
| 20260505054555 | 44 | 69 | 0.0 | 0.9 | 0.00 | 0.00 | 0.00 | 65 | 1014.3 |
| 20260505053057 | 45 | 0 | 0.0 | 0.9 | 0.00 | 0.00 | 0.00 | 64 | 1014.2 |
| 20260505051550 | 45 | 106 | 0.0 | 0.9 | 0.00 | 0.00 | 0.00 | 64 | 1014.2 |
| 20260505041554 | 46 | 4 | 0.0 | 0.9 | 0.00 | 0.00 | 0.00 | 58 | 1014.2 |
| 20260505040057 | 47 | 0 | 0.0 | 0.9 | 0.00 | 0.00 | 0.00 | 61 | 1014.1 |
| 20260505034550 | 48 | 0 | 0.0 | 0.9 | 0.00 | 0.00 | 0.00 | 60 | 1014.0 |
| 20260505033110 | 49 | 0 | 0.0 | 5.2 | 0.00 | 0.00 | 0.00 | 53 | 1013.8 |
| 20260505031552 | 48 | 314 | 0.0 | 0.9 | 0.00 | 0.00 | 0.00 | 59 | 1013.6 |
| 20260505030055 | 48 | 342 | 0.9 | 1.7 | 0.00 | 0.00 | 0.00 | 58 | 1013.4 |
| 20260505024552 | 48 | 0 | 0.0 | 0.9 | 0.00 | 0.00 | 0.00 | 59 | 1013.6 |
| 20260505023100 | 48 | 323 | 0.0 | 0.9 | 0.00 | 0.00 | 0.00 | 59 | 1013.3 |
| 20260505021555 | 49 | 0 | 0.0 | 0.9 | 0.00 | 0.00 | 0.00 | 57 | 1012.8 |
| 20260505020053 | 50 | 107 | 0.0 | 0.9 | 0.00 | 0.00 | 0.00 | 55 | 1012.7 |
| 20260505014554 | 50 | 105 | 0.0 | 0.9 | 0.00 | 0.00 | 0.00 | 55 | 1012.4 |
| 20260505013051 | 51 | 0 | 0.0 | 1.7 | 0.00 | 0.00 | 0.00 | 54 | 1012.2 |
| 20260505011559 | 52 | 0 | 0.0 | 2.6 | 0.00 | 0.00 | 0.00 | 51 | 1012.1 |
| 20260505010054 | 54 | 0 | 0.0 | 0.9 | 0.00 | 0.00 | 0.00 | 45 | 1011.9 |
| 20260505004558 | 55 | 0 | 0.0 | 1.7 | 0.00 | 0.00 | 0.00 | 43 | 1011.9 |
| 20260505003048 | 55 | 0 | 1.7 | 4.3 | 0.00 | 0.00 | 0.00 | 41 | 1012.1 |
| 20260505001554 | 56 | 298 | 0.0 | 4.3 | 0.00 | 0.00 | 0.00 | 43 | 1012.1 |
| 20260505000101 | 57 | 0 | 0.0 | 2.6 | 0.00 | 0.00 | 0.00 | 41 | 1012.3 |
| 20260504234615 | 57 | 96 | 2.6 | 7.8 | 0.00 | 0.00 | 0.00 | 39 | 1012.1 |
| 20260504233056 | 57 | 45 | 1.7 | 5.2 | 0.00 | 0.00 | 0.00 | 39 | 1012.1 |
| 20260504231559 | 57 | 302 | 1.7 | 4.3 | 0.00 | 0.00 | 0.00 | 40 | 1012.0 |
| 20260504230100 | 57 | 313 | 0.9 | 4.3 | 0.00 | 0.00 | 0.00 | 40 | 1011.9 |
| 20260504224603 | 57 | 359 | 1.7 | 4.3 | 0.00 | 0.00 | 0.00 | 38 | 1012.1 |
| 20260504223056 | 58 | 4 | 1.7 | 5.2 | 0.00 | 0.00 | 0.00 | 39 | 1012.1 |
| 20260504221601 | 58 | 0 | 0.0 | 10.4 | 0.00 | 0.00 | 0.00 | 39 | 1012.2 |
| 20260504220055 | 57 | 34 | 1.7 | 5.2 | 0.00 | 0.00 | 0.00 | 40 | 1012.7 |
| 20260504214555 | 57 | 255 | 2.6 | 6.1 | 0.00 | 0.00 | 0.00 | 41 | 1012.9 |
| 20260504213103 | 57 | 0 | 0.9 | 5.2 | 0.00 | 0.00 | 0.00 | 40 | 1013.5 |
| 20260504211553 | 58 | 141 | 3.5 | 6.1 | 0.00 | 0.00 | 0.00 | 38 | 1013.3 |
| 20260504204636 | 57 | 281 | 0.9 | 5.2 | 0.00 | 0.00 | 0.00 | 40 | 1014.1 |
| 20260504203052 | 57 | 238 | 0.9 | 3.5 | 0.00 | 0.00 | 0.00 | 40 | 1014.2 |
| 20260504201554 | 58 | 159 | 0.9 | 4.3 | 0.00 | 0.00 | 0.00 | 42 | 1014.3 |
| 20260504194556 | 56 | 304 | 3.5 | 12.2 | 0.00 | 0.00 | 0.00 | 40 | 1014.6 |
| 20260504193055 | 57 | 6 | 2.6 | 12.2 | 0.00 | 0.00 | 0.00 | 45 | 1014.6 |
| 20260504191554 | 55 | 322 | 1.7 | 14.8 | 0.00 | 0.00 | 0.00 | 45 | 1014.7 |
| 20260504190059 | 54 | 42 | 1.7 | 11.3 | 0.00 | 0.00 | 0.00 | 53 | 1014.9 |
| 20260504184604 | 59 | 270 | 1.7 | 9.6 | 0.00 | 0.00 | 0.00 | 35 | 1014.6 |
| 20260504183100 | 57 | 224 | 2.6 | 11.3 | 0.00 | 0.00 | 0.00 | 40 | 1014.9 |
| 20260504181557 | 57 | 85 | 3.5 | 11.3 | 0.00 | 0.00 | 0.00 | 40 | 1015.2 |
| 20260504180055 | 57 | 45 | 2.6 | 11.3 | 0.00 | 0.00 | 0.00 | 39 | 1015.3 |
| 20260504174557 | 56 | 97 | 1.7 | 7.8 | 0.00 | 0.00 | 0.00 | 39 | 1015.7 |
| 20260504173053 | 56 | 325 | 2.6 | 10.4 | 0.00 | 0.00 | 0.00 | 38 | 1015.5 |
| 20260504171559 | 56 | 303 | 3.5 | 10.4 | 0.00 | 0.00 | 0.00 | 38 | 1015.6 |